TimeEDT,TemperatureF,Dew PointF,Humidity,Sea Level PressureIn,VisibilityMPH,Wind Direction,Wind SpeedMPH,Gust SpeedMPH,PrecipitationIn,Events,Conditions,WindDirDegrees,DateUTC
12:15 AM,46.4,42.8,87,30.12,10.0,Calm,Calm,-,N/A,,Clear,0,2013-09-30 04:15:00
12:35 AM,46.4,42.8,87,30.11,10.0,Calm,Calm,-,N/A,,Clear,0,2013-09-30 04:35:00
12:55 AM,48.2,44.6,87,30.10,10.0,Calm,Calm,-,N/A,,Clear,0,2013-09-30 04:55:00
1:15 AM,46.4,42.8,87,30.10,10.0,Calm,Calm,-,N/A,,Clear,0,2013-09-30 05:15:00
1:35 AM,46.4,42.8,87,30.11,10.0,Calm,Calm,-,N/A,,Clear,0,2013-09-30 05:35:00
1:55 AM,46.4,42.8,87,30.10,10.0,Calm,Calm,-,N/A,,Clear,0,2013-09-30 05:55:00
2:15 AM,46.4,41.0,81,30.10,10.0,Calm,Calm,-,N/A,,Clear,0,2013-09-30 06:15:00
2:35 AM,46.4,42.8,87,30.10,10.0,Calm,Calm,-,N/A,,Clear,0,2013-09-30 06:35:00
2:55 AM,46.4,42.8,87,30.10,10.0,Calm,Calm,-,N/A,,Clear,0,2013-09-30 06:55:00
3:15 AM,46.4,41.0,81,30.10,10.0,NNW,4.6,-,N/A,,Clear,340,2013-09-30 07:15:00
3:35 AM,46.4,42.8,87,30.09,10.0,NNE,3.5,-,N/A,,Clear,20,2013-09-30 07:35:00
3:55 AM,46.4,41.0,81,30.09,10.0,Calm,Calm,-,N/A,,Clear,0,2013-09-30 07:55:00
4:15 AM,46.4,41.0,81,30.09,10.0,Calm,Calm,-,N/A,,Clear,0,2013-09-30 08:15:00
4:35 AM,46.4,42.8,87,30.09,10.0,Calm,Calm,-,N/A,,Clear,0,2013-09-30 08:35:00
4:55 AM,42.8,37.4,81,30.08,10.0,East,4.6,-,N/A,,Clear,80,2013-09-30 08:55:00
5:15 AM,46.4,42.8,87,30.09,10.0,Calm,Calm,-,N/A,,Clear,0,2013-09-30 09:15:00
5:35 AM,44.6,41.0,87,30.09,10.0,Calm,Calm,-,N/A,,Clear,0,2013-09-30 09:35:00
5:50 AM,44.6,41.0,87,30.09,10.0,ESE,4.6,-,N/A,,Clear,110,2013-09-30 09:50:00
6:45 AM,44.6,39.2,81,30.10,10.0,Calm,Calm,-,N/A,,Clear,0,2013-09-30 10:45:00
7:45 AM,46.4,42.8,87,30.11,10.0,Calm,Calm,-,N/A,,Clear,0,2013-09-30 11:45:00
8:45 AM,53.6,46.4,77,30.10,10.0,North,5.8,-,N/A,,Clear,360,2013-09-30 12:45:00
9:45 AM,59.0,48.2,67,30.08,10.0,NE,4.6,-,N/A,,Clear,40,2013-09-30 13:45:00
10:45 AM,62.6,50.0,63,30.08,10.0,ESE,5.8,-,N/A,,Clear,120,2013-09-30 14:45:00
11:45 AM,64.4,48.2,56,30.05,10.0,SE,5.8,-,N/A,,Partly Cloudy,140,2013-09-30 15:45:00
12:45 PM,66.2,48.2,52,30.04,10.0,SE,4.6,-,N/A,,Scattered Clouds,130,2013-09-30 16:45:00
1:45 PM,66.2,50.0,56,30.03,10.0,Calm,Calm,-,N/A,,Mostly Cloudy,0,2013-09-30 17:45:00
2:45 PM,68.0,50.0,52,30.01,10.0,Variable,4.6,-,N/A,,Scattered Clouds,0,2013-09-30 18:45:00
3:45 PM,68.0,50.0,52,30.01,10.0,Variable,4.6,-,N/A,,Scattered Clouds,0,2013-09-30 19:45:00
4:45 PM,69.8,51.8,53,30.00,10.0,Variable,4.6,-,N/A,,Partly Cloudy,0,2013-09-30 20:45:00
5:45 PM,68.0,57.2,68,29.99,10.0,Variable,4.6,-,N/A,,Partly Cloudy,0,2013-09-30 21:45:00
6:45 PM,62.6,51.8,68,29.99,10.0,Calm,Calm,-,N/A,,Clear,0,2013-09-30 22:45:00
7:45 PM,57.2,50.0,77,30.00,10.0,Calm,Calm,-,N/A,,Clear,0,2013-09-30 23:45:00
8:55 PM,53.6,48.2,82,30.01,10.0,Calm,Calm,-,N/A,,Clear,0,2013-10-01 00:55:00
9:15 PM,53.6,46.4,77,30.01,10.0,Calm,Calm,-,N/A,,Clear,0,2013-10-01 01:15:00
9:35 PM,51.8,46.4,82,30.02,10.0,Calm,Calm,-,N/A,,Clear,0,2013-10-01 01:35:00
9:55 PM,53.6,48.2,82,30.01,10.0,Calm,Calm,-,N/A,,Clear,0,2013-10-01 01:55:00
10:15 PM,53.6,48.2,82,30.02,10.0,Calm,Calm,-,N/A,,Clear,0,2013-10-01 02:15:00
10:35 PM,51.8,46.4,82,30.01,10.0,Calm,Calm,-,N/A,,Clear,0,2013-10-01 02:35:00
10:55 PM,51.8,46.4,82,30.01,10.0,Calm,Calm,-,N/A,,Clear,0,2013-10-01 02:55:00
11:15 PM,51.8,46.4,82,30.01,10.0,Calm,Calm,-,N/A,,Clear,0,2013-10-01 03:15:00
11:35 PM,51.8,46.4,82,30.01,10.0,Calm,Calm,-,N/A,,Clear,0,2013-10-01 03:35:00
11:55 PM,51.8,46.4,82,30.01,10.0,Calm,Calm,-,N/A,,Clear,0,2013-10-01 03:55:00